Previsão horária em Senador Pompeu

Hoje, 3 Dezembro, Quinta-feira

Tempo Temperatura Precipitação Vento Pressão Humidade
00:00 +28°C° 0.1 mm 3 m/s 742 mmHg 73%
01:00 +28°C° 0 mm 3 m/s 741 mmHg 75%
02:00 +27°C° 0 mm 3 m/s 741 mmHg 76%
03:00 +27°C° 0 mm 3 m/s 741 mmHg 77%
04:00 +27°C° 0 mm 3 m/s 741 mmHg 77%
05:00 +27°C° 0 mm 3 m/s 742 mmHg 76%
06:00 +27°C° 0 mm 3 m/s 742 mmHg 76%
07:00 +29°C° 0 mm 3 m/s 742 mmHg 68%
08:00 +30°C° 0 mm 3 m/s 743 mmHg 60%
09:00 +33°C° 0 mm 3 m/s 743 mmHg 53%
10:00 +35°C° 0 mm 3 m/s 742 mmHg 46%
11:00 +37°C° 0 mm 3 m/s 742 mmHg 39%
12:00 +38°C° 0 mm 3 m/s 741 mmHg 33%
13:00 +39°C° 0 mm 3 m/s 740 mmHg 32%
14:00 +39°C° 0 mm 3 m/s 740 mmHg 31%
15:00 +39°C° 0 mm 3 m/s 739 mmHg 30%
16:00 +37°C° 0 mm 3 m/s 739 mmHg 34%
17:00 +36°C° 0 mm 3 m/s 739 mmHg 38%
18:00 +35°C° 0 mm 3 m/s 740 mmHg 42%
19:00 +34°C° 0 mm 3 m/s 740 mmHg 47%
20:00 +33°C° 0 mm 4 m/s 741 mmHg 52%
21:00 +32°C° 0 mm 4 m/s 742 mmHg 57%
22:00 +30°C° 0.1 mm 4 m/s 742 mmHg 61%
23:00 +29°C° 0.1 mm 3 m/s 742 mmHg 65%

Amanhã, 4 Dezembro, Sexta-feira

Tempo Temperatura Precipitação Vento Pressão Humidade
00:00 +28°C° 0.1 mm 3 m/s 742 mmHg 70%
01:00 +28°C° 1 mm 3 m/s 742 mmHg 72%
02:00 +28°C° 1 mm 3 m/s 742 mmHg 74%
03:00 +27°C° 1 mm 3 m/s 741 mmHg 76%
04:00 +27°C° 0.2 mm 3 m/s 742 mmHg 75%
05:00 +27°C° 0.2 mm 3 m/s 742 mmHg 75%
06:00 +27°C° 0.2 mm 3 m/s 743 mmHg 75%
07:00 +28°C° 0 mm 3 m/s 743 mmHg 69%
08:00 +30°C° 0 mm 3 m/s 744 mmHg 64%
09:00 +31°C° 0 mm 3 m/s 744 mmHg 58%
10:00 +34°C° 0 mm 3 m/s 743 mmHg 51%
11:00 +36°C° 0 mm 3 m/s 743 mmHg 44%
12:00 +38°C° 0 mm 3 m/s 742 mmHg 37%
13:00 +37°C° 0 mm 3 m/s 742 mmHg 37%
14:00 +37°C° 0 mm 2 m/s 741 mmHg 37%
15:00 +36°C° 0 mm 2 m/s 740 mmHg 37%
16:00 +36°C° 0 mm 2 m/s 740 mmHg 38%
17:00 +34°C° 0 mm 1 m/s 740 mmHg 38%
18:00 +33°C° 0 mm 1 m/s 740 mmHg 39%
19:00 +32°C° 0 mm 2 m/s 741 mmHg 47%
20:00 +31°C° 0 mm 3 m/s 741 mmHg 54%
21:00 +30°C° 0 mm 4 m/s 742 mmHg 61%
22:00 +29°C° 0 mm 3 m/s 741 mmHg 65%
23:00 +28°C° 0 mm 3 m/s 741 mmHg 70%

Depois de amanhã, 5 Dezembro, Sábado

Tempo Temperatura Precipitação Vento Pressão Humidade
00:00 +27°C° 0 mm 2 m/s 741 mmHg 74%
01:00 +27°C° 0 mm 2 m/s 741 mmHg 75%
02:00 +27°C° 0 mm 2 m/s 741 mmHg 77%
03:00 +27°C° 0 mm 3 m/s 741 mmHg 79%
04:00 +27°C° 0 mm 3 m/s 741 mmHg 77%
05:00 +27°C° 0 mm 3 m/s 742 mmHg 76%
06:00 +27°C° 0 mm 3 m/s 742 mmHg 75%
07:00 +28°C° 0 mm 3 m/s 742 mmHg 69%
08:00 +29°C° 0 mm 3 m/s 743 mmHg 63%
09:00 +30°C° 0 mm 3 m/s 743 mmHg 57%
10:00 +33°C° 0 mm 3 m/s 743 mmHg 49%
11:00 +35°C° 0 mm 3 m/s 742 mmHg 42%
12:00 +37°C° 0 mm 3 m/s 742 mmHg 34%
13:00 +38°C° 0 mm 3 m/s 741 mmHg 32%
14:00 +38°C° 0 mm 3 m/s 740 mmHg 30%
15:00 +39°C° 0 mm 3 m/s 739 mmHg 28%
16:00 +38°C° 0 mm 2 m/s 740 mmHg 29%
17:00 +36°C° 0 mm 2 m/s 740 mmHg 31%
18:00 +34°C° 0 mm 1 m/s 740 mmHg 32%
19:00 +34°C° 0 mm 2 m/s 740 mmHg 41%
20:00 +33°C° 0 mm 3 m/s 741 mmHg 51%
21:00 +30°C° 0 mm 5 m/s 741 mmHg 60%
22:00 +29°C° 0 mm 4 m/s 741 mmHg 63%
23:00 +29°C° 0 mm 4 m/s 741 mmHg 67%

6 Dezembro, Domingo

Tempo Temperatura Precipitação Vento Pressão Humidade
00:00 +28°C° 0 mm 3 m/s 741 mmHg 70%
01:00 +27°C° 0 mm 3 m/s 741 mmHg 72%
02:00 +27°C° 0 mm 2 m/s 741 mmHg 74%
03:00 +27°C° 0 mm 1 m/s 741 mmHg 75%
04:00 +27°C° 0 mm 2 m/s 741 mmHg 74%
05:00 +26°C° 0 mm 2 m/s 742 mmHg 73%
06:00 +26°C° 0 mm 2 m/s 742 mmHg 72%
07:00 +28°C° 0 mm 3 m/s 742 mmHg 64%
08:00 +30°C° 0 mm 3 m/s 743 mmHg 57%
09:00 +33°C° 0 mm 3 m/s 743 mmHg 50%
10:00 +35°C° 0 mm 3 m/s 742 mmHg 44%
11:00 +37°C° 0 mm 3 m/s 742 mmHg 38%
12:00 +38°C° 0 mm 3 m/s 741 mmHg 31%
13:00 +38°C° 0 mm 3 m/s 740 mmHg 31%
14:00 +38°C° 0 mm 3 m/s 740 mmHg 31%
15:00 +38°C° 0 mm 3 m/s 739 mmHg 31%
16:00 +37°C° 0 mm 3 m/s 739 mmHg 34%
17:00 +36°C° 0 mm 2 m/s 739 mmHg 37%
18:00 +35°C° 0 mm 2 m/s 740 mmHg 39%
19:00 +34°C° 0 mm 2 m/s 740 mmHg 42%
20:00 +33°C° 0 mm 3 m/s 741 mmHg 45%
21:00 +31°C° 0 mm 3 m/s 741 mmHg 47%
22:00 +30°C° 0 mm 3 m/s 741 mmHg 53%
23:00 +29°C° 0 mm 3 m/s 741 mmHg 60%

7 Dezembro, Segunda-feira

Tempo Temperatura Precipitação Vento Pressão Humidade
00:00 +28°C° 0 mm 3 m/s 741 mmHg 66%
01:00 +28°C° 0 mm 3 m/s 741 mmHg 68%
02:00 +27°C° 0 mm 3 m/s 741 mmHg 70%
03:00 +27°C° 0 mm 3 m/s 740 mmHg 73%
04:00 +27°C° 0 mm 3 m/s 741 mmHg 72%
05:00 +26°C° 0 mm 3 m/s 741 mmHg 72%
06:00 +26°C° 0 mm 3 m/s 742 mmHg 71%
07:00 +28°C° 0 mm 3 m/s 742 mmHg 63%
08:00 +30°C° 0 mm 3 m/s 743 mmHg 55%
09:00 +33°C° 0 mm 3 m/s 743 mmHg 47%
10:00 +35°C° 0 mm 3 m/s 743 mmHg 40%
11:00 +37°C° 0 mm 3 m/s 742 mmHg 34%
12:00 +38°C° 0 mm 3 m/s 741 mmHg 27%
13:00 +39°C° 0 mm 3 m/s 741 mmHg 26%
14:00 +39°C° 0 mm 3 m/s 740 mmHg 24%
15:00 +39°C° 0 mm 3 m/s 739 mmHg 23%
16:00 +38°C° 0 mm 2 m/s 739 mmHg 25%
17:00 +37°C° 0 mm 2 m/s 739 mmHg 27%
18:00 +34°C° 0 mm 1 m/s 740 mmHg 29%
19:00 +34°C° 0 mm 2 m/s 740 mmHg 40%
20:00 +31°C° 0 mm 3 m/s 741 mmHg 52%
21:00 +30°C° 0 mm 4 m/s 741 mmHg 63%
22:00 +29°C° 0.3 mm 4 m/s 741 mmHg 66%
23:00 +29°C° 0.3 mm 4 m/s 741 mmHg 69%

8 Dezembro, Terça-feira

Tempo Temperatura Precipitação Vento Pressão Humidade
00:00 +28°C° 0.3 mm 3 m/s 741 mmHg 72%
01:00 +28°C° 0 mm 3 m/s 741 mmHg 72%
02:00 +27°C° 0 mm 2 m/s 741 mmHg 72%
03:00 +27°C° 0 mm 2 m/s 741 mmHg 72%
04:00 +27°C° 0 mm 2 m/s 742 mmHg 72%
05:00 +26°C° 0 mm 2 m/s 742 mmHg 71%
06:00 +26°C° 0 mm 2 m/s 743 mmHg 70%
07:00 +28°C° 0 mm 2 m/s 743 mmHg 61%
08:00 +30°C° 0 mm 3 m/s 743 mmHg 52%
09:00 +33°C° 0 mm 3 m/s 744 mmHg 44%
10:00 +35°C° 0 mm 3 m/s 743 mmHg 38%
11:00 +36°C° 0 mm 3 m/s 743 mmHg 32%
12:00 +38°C° 0 mm 3 m/s 742 mmHg 27%
13:00 +38°C° 0 mm 3 m/s 741 mmHg 25%
14:00 +39°C° 0 mm 3 m/s 741 mmHg 24%
15:00 +40°C° 0 mm 4 m/s 740 mmHg 23%
16:00 +38°C° 0 mm 3 m/s 740 mmHg 25%
17:00 +36°C° 0 mm 2 m/s 740 mmHg 27%
18:00 +34°C° 0 mm 1 m/s 740 mmHg 30%
19:00 +34°C° 0 mm 2 m/s 741 mmHg 38%
20:00 +31°C° 0 mm 3 m/s 742 mmHg 46%
21:00 +30°C° 0 mm 4 m/s 742 mmHg 54%
22:00 +29°C° 0 mm 4 m/s 742 mmHg 61%
23:00 +28°C° 0 mm 3 m/s 742 mmHg 68%
Mostrar mais

Necessitamos do seu Consentimento

A Meteoprog e os seus Fornecedores de Serviços podem armazenar e aceder a dados pessoais como cookies, identificadores do dispositivo ou outras tecnologias semelhantes existentes no seu dispositivo e processar estes dados para personalizar conteúdos e anúncios, assim como funcionalidades nas redes sociais e análise de tráfego.

  • Armazenar e/ou aceder a informações no seu dispositivo

    Os cookies, identificadores do dispositivo ou outras informações podem ser armazenados ou acedidos no seu dispositivo, para os fins acima indicados.

  • Anúncios e conteúdos personalizados, medição de anúncios e conteúdos, dados sobre o público-alvo e desenvolvimento de produtos

    Os anúncios e os conteúdos podem ser personalizados com base num perfil. Podem ser adicionados dados adicionais para uma maior personalização dos anúncios e dos conteúdos. A eficácia dos anúncios e dos conteúdos pode ser medida. Podem ser obtidas informações sobre o público que visualizou os anúncios e os conteúdos. Estes dados podem ser usados para desenvolver ou melhorar sistemas, softwares ou a experiência do utilizador.

Ao clicar em "Eu concordo”, permitirá o uso de cookies, identificadores do dispositivo e web beacons mencionados ou outras tecnologias semelhantes. As configurações do navegador do seu dispositivo podem ser alteradas.

Para certos fins, podem ser invocados interesses legítimos ao invés de consentimento. Pode ler mais informação sobre este assunto na nossa Política de Privacidade e Cookies.